sat.trackr.live / text

‹ back to catalog

STARLINK-11512 [DTC]

NORAD 62517 · 2025-004G

PAYLOAD ACTIVE UNKNOWN

§ Identity

Operator
Country
US
Launch date
2025-01-08
Launch site
AFETR
Launch vehicle
Mass (kg)
RCS (m²)

Purposes: comms

External: N2YO · Heavens-Above · Gunter

§ Orbital elements

Epoch: 2026-09-21T15:46:10.811712Z

Period
91.67 min
Inclination
43.0003°
Eccentricity
0.0001717
Mean motion
15.70872584 rev/d
Perigee alt
355.2 km
Apogee alt
357.6 km
Semi-major
6,734.5 km
B*
1.1922e-3
RAAN
329.0981°
Arg perigee
285.1598°
Mean anomaly
74.9079°
Rev number
9,803

§ Raw data

STARLINK-11512 [DTC]1 62517U 25004G   26264.65706958  .00155632  00000+0  11922-2 0  99962 62517  43.0003 329.0981 0001717 285.1598  74.9079 15.70872584 98032

JSON: /api/v1/satellites/62517 · /tle

For live sub-satellite position, see the globe view (requires WebGL).

§ Visibility from observer

Set your observer location to see the next 7 days of passes ≥ 10°. The values pass through the URL so the page stays shareable.

No JS? Fill the form by hand. The geolocation button needs JavaScript.